Regional Weather Roundup
Issued by NWS

Home | Current Version | Previous Version | Graphics & Text | Print | Product List | Glossary On
Versions: 1 2 3 4 5 6 7 8 9 10 11 12 13 14 15 16 17 18 19 20 21 22 23 24 25 26 27 28 29 30 31 32 33 34 35 36 37 38 39 40 41 42 43 44 45 46 47 48 49 50
000
ASUS45 KBOU 012007
RWRCO

WEATHER ROUNDUP FOR COLORADO
NATIONAL WEATHER SERVICE DENVER/BOULDER CO
200 PM MDT MON SEP 01 2014

NOTE: "FAIR" INDICATES FEW OR NO CLOUDS BELOW 12000 FEET WITH NO
SIGNIFICANT WEATHER AND/OR OBSTRUCTIONS TO VISIBILITY.

COZ001>005-013-030-031-012100-
...NORTHWEST COLORADO...

CITY           SKY/WX    TMP DP  RH WIND       PRES   REMARKS
CRAIG          SUNNY     74  37  26 W17G23    30.12S
HAYDEN         SUNNY     70  34  26 W17G26    30.13S
MEEKER         SUNNY     74  35  24 SW14G20   30.14F
MOUNT WERNER   NOT AVBL
STEAMBOAT SPGS SUNNY     67  34  29 W13G20    30.15S
WALDEN         MOSUNNY   61  30  31 SW23G29   30.20S
$$

COZ006>008-011-012100-
...WEST CENTRAL VALLEYS...

CITY           SKY/WX    TMP DP  RH WIND       PRES   REMARKS
GRAND JUNCTION SUNNY     81  37  20 W7        30.04F
MONTROSE       SUNNY     82  34  17 VRB5      30.10F
EAGLE          MOSUNNY   75  34  22 SW22G32   30.15S
RIFLE          SUNNY     79  34  19 W16G23    30.07F
DELTA          SUNNY     84  34  16 SW6       30.06F
NUCLA          SUNNY     82  30  15 SW10G17   30.14F
$$

COZ017>023-064>068-012100-
...SOUTHWEST COLORADO...

CITY           SKY/WX    TMP DP  RH WIND       PRES   REMARKS
DURANGO        SUNNY     83  26  12 W21G36    30.15S
CORTEZ         SUNNY     85  32  15 NW12G24   30.12F
PAGOSA SPRINGS SUNNY     78  22  12 SW20G29   30.22S
TELLURIDE      MOSUNNY   70  28  21 NW7G17    30.34S
WOLF CREEK PAS NOT AVBL
$$

COZ009-010-012-014-032>034-037-058>063-012100-
...CENTRAL COLORADO...

CITY           SKY/WX    TMP DP  RH WIND       PRES   REMARKS
ASPEN          MOSUNNY   70  36  28 NW13G22   30.20S
BUENA VISTA    SUNNY     76  23  14 W21G29    30.17F
COPPER MTN     PTSUNNY   54  32  43 W26G35    30.45S
BERTHOUD PASS  PTSUNNY   43  41  93 W28G39    30.46S
COTTONWOOD PAS SUNNY     66  21  18 W22G39    30.30F
GUNNISON       SUNNY     73  32  21 W21G29    30.22F
KREMMLING      PTSUNNY   70  27  19 W17       30.17S
LEADVILLE      SUNNY     61  29  29 NW13G28   30.32R
MONARCH PASS   MOSUNNY   52  30  43 W38G44    30.56S
SALIDA         SUNNY     78  27  15 SW25G32   30.22F
SUNLIGHT       MOSUNNY   59  39  47 CALM      30.43R
WILKERSON PASS NOT AVBL
$$

COZ069>075-012100-
...SAN LUIS VALLEY/SANGRE DE CRISTO MOUNTAINS...

CITY           SKY/WX    TMP DP  RH WIND       PRES   REMARKS
ALAMOSA        SUNNY     81  28  14 MISG      30.14F
LA VETA PASS   NOT AVBL
SAGUACHE       NOT AVBL
$$

COZ035-036-038>040-012100-
...NORTHERN COLORADO FRONT RANGE...

CITY           SKY/WX    TMP DP  RH WIND       PRES   REMARKS
DENVER INTL AP MOSUNNY   77  38  24 VRB5      30.02F
DMNS CITY PARK   N/A     79  40  24 S5G10     30.00F
AURORA         MOSUNNY   76  39  26 W5        30.05S
FRONT RANGE AP MOSUNNY   79  37  22 NW8       30.03
ERIE MUNI ARPT SUNNY     79  37  21 N10       29.99S
BOULDER MUN AP MOSUNNY   81  32  17 W10G16    29.99F
CENTENNIAL     MOSUNNY   75  35  23 NE9       30.05F
BROOMFIELD     MOSUNNY   77  41  27 SE9       30.03F
FORT COLLINS   SUNNY     75  46  35 SE5       30.00F
LONGMONT       SUNNY     80  43  26 E5        30.00F
$$

COZ041-046-047-076>085-087-088-012100-
...PIKES PEAK/PALMER DIVIDE AND SOUTHERN FOOTHILLS...

CITY           SKY/WX    TMP DP  RH WIND       PRES   REMARKS
COLO. SPRINGS  MOSUNNY   75  46  35 SE20      30.07F
A. F. ACADEMY  MOSUNNY   72  47  42 SE12      30.09S
ELLICOTT       SUNNY     73  43  33 S10       30.07F
FALCON         MOSUNNY   71  46  41 S12       30.13F
FORT CARSON    SUNNY     78  48  34 S15G24    30.02F
LIMON          SUNNY     75  42  30 S8G18     30.05F
MONUMENT HILL  PTSUNNY   68  45  42 S3        30.13R
TRINIDAD       SUNNY     85  42  22 E10       30.02F
$$

COZ042>045-048>051-090-091-012100-
...NORTHEAST COLORADO...

CITY           SKY/WX    TMP DP  RH WIND       PRES   REMARKS
GREELEY ARPT   SUNNY     75  43  31 N3        30.00F
AKRON          SUNNY     76  41  28 MISG      30.01F
BURLINGTON     SUNNY     78  44  29 S8        30.01F
WRAY             N/A     77  47  34 CALM      30.00F
STERLING       SUNNY     77  54  44 S10       29.98F
HOLYOKE        MOSUNNY   75  52  43 SW7       29.99F
FORT MORGAN    SUNNY     78  43  29 W9        30.01F
$$

COZ086-089-092>099-012100-
...SOUTHEAST COLORADO...

CITY           SKY/WX    TMP DP  RH WIND       PRES   REMARKS
PUEBLO         SUNNY     82  48  30 S12       29.97F
LA JUNTA       SUNNY     83  42  23 VRB7      29.97F
LAMAR          SUNNY     83  47  28 SE9       29.95F
SPRINGFIELD      N/A     80  47  31 CALM      29.99F
$$


USA.gov is the U.S. government's official web portal to all federal, state and local government web resources and services.